When you browse on this site, cookies collect data to enhance your experience and personalize the content and advertising you see.
Visit our Privacy Policy to learn more. By continuing to use the site, you agree to this use of cookies and data.
  • In Hungary
  • List of Countries
  • For 7 days
  • Water Temperature
  • Weather Map
  • News
  • Weather Widgets
  • user-avatar
    Login

    Hourly Weather Trail

    Today, 20 November, Wednesday

    Time Temperature Precipitation Wind Pressure Humidity
    00:00 -3°C° 0 mm 2 mps 660 mmHg 91%
    01:00 -4°C° 0 mm 2 mps 661 mmHg 91%
    02:00 -2°C° 0 mm 1 mps 662 mmHg 91%
    03:00 -2°C° 0 mm 1 mps 662 mmHg 91%
    04:00 -2°C° 0 mm 1 mps 663 mmHg 91%
    05:00 -3°C° 0 mm 1 mps 663 mmHg 91%
    06:00 -3°C° 0 mm 1 mps 663 mmHg 91%
    07:00 -3°C° 0 mm 1 mps 663 mmHg 91%
    08:00 -1°C° 0 mm 1 mps 664 mmHg 84%
    09:00 0°C° 0 mm 1 mps 664 mmHg 78%
    10:00 +1°C° 0 mm 1 mps 665 mmHg 71%
    11:00 +2°C° 0 mm 1 mps 664 mmHg 68%
    12:00 +3°C° 0 mm 1 mps 664 mmHg 64%
    13:00 +4°C° 0 mm 1 mps 664 mmHg 60%
    14:00 +3°C° 0 mm 1 mps 663 mmHg 67%
    15:00 +1°C° 0 mm 1 mps 663 mmHg 74%
    16:00 0°C° 0 mm 1 mps 663 mmHg 81%
    17:00 -1°C° 0 mm 1 mps 663 mmHg 83%
    18:00 -1°C° 0 mm 1 mps 663 mmHg 85%
    19:00 -2°C° 0 mm 1 mps 663 mmHg 87%
    20:00 -2°C° 0 mm 1 mps 663 mmHg 87%
    21:00 -2°C° 0 mm 1 mps 663 mmHg 87%
    22:00 -2°C° 0 mm 1 mps 663 mmHg 86%
    23:00 -2°C° 0 mm 1 mps 662 mmHg 86%

    Tomorrow, 21 November, Thursday

    Time Temperature Precipitation Wind Pressure Humidity
    00:00 -2°C° 0 mm 1 mps 662 mmHg 85%
    01:00 -3°C° 0 mm 1 mps 662 mmHg 84%
    02:00 -3°C° 0 mm 1 mps 662 mmHg 84%
    03:00 -3°C° 0 mm 1 mps 661 mmHg 83%
    04:00 -3°C° 0 mm 1 mps 661 mmHg 83%
    05:00 -3°C° 0 mm 1 mps 661 mmHg 82%
    06:00 -3°C° 0 mm 1 mps 660 mmHg 81%
    07:00 -3°C° 0 mm 1 mps 660 mmHg 81%
    08:00 -3°C° 0 mm 0 mps 660 mmHg 72%
    09:00 -1°C° 0 mm 0 mps 660 mmHg 64%
    10:00 +1°C° 0 mm 0 mps 661 mmHg 55%
    11:00 +2°C° 0 mm 0 mps 660 mmHg 52%
    12:00 +3°C° 0 mm 0 mps 660 mmHg 49%
    13:00 +4°C° 0 mm 0 mps 660 mmHg 46%
    14:00 +2°C° 0 mm 0 mps 659 mmHg 54%
    15:00 0°C° 0 mm 0 mps 659 mmHg 63%
    16:00 -2°C° 0 mm 0 mps 659 mmHg 71%
    17:00 -2°C° 0 mm 0 mps 659 mmHg 73%
    18:00 -3°C° 0 mm 0 mps 659 mmHg 75%
    19:00 -3°C° 0 mm 0 mps 659 mmHg 76%
    20:00 -3°C° 0 mm 0 mps 659 mmHg 78%
    21:00 -4°C° 0 mm 0 mps 659 mmHg 79%
    22:00 -4°C° 0 mm 0 mps 659 mmHg 80%
    23:00 -4°C° 0 mm 0 mps 659 mmHg 82%

    Day after tomorrow, 22 November, Friday

    Time Temperature Precipitation Wind Pressure Humidity
    00:00 -4°C° 0 mm 0 mps 660 mmHg 83%
    01:00 -5°C° 0 mm 0 mps 660 mmHg 85%
    02:00 -5°C° 0 mm 0 mps 660 mmHg 86%
    03:00 -5°C° 0 mm 0 mps 660 mmHg 87%
    04:00 -5°C° 0 mm 0 mps 660 mmHg 88%
    05:00 -5°C° 0 mm 0 mps 660 mmHg 88%
    06:00 -6°C° 0 mm 0 mps 661 mmHg 89%
    07:00 -6°C° 0 mm 0 mps 661 mmHg 90%
    08:00 -4°C° 0 mm 0 mps 662 mmHg 81%
    09:00 -3°C° 0 mm 0 mps 662 mmHg 72%
    10:00 -1°C° 0 mm 0 mps 663 mmHg 64%
    11:00 0°C° 0 mm 0 mps 663 mmHg 60%
    12:00 +2°C° 0 mm 1 mps 663 mmHg 57%
    13:00 +2°C° 0 mm 1 mps 663 mmHg 53%
    14:00 +1°C° 0 mm 1 mps 663 mmHg 61%
    15:00 -2°C° 0 mm 0 mps 663 mmHg 68%
    16:00 -3°C° 0 mm 0 mps 663 mmHg 75%
    17:00 -3°C° 0 mm 0 mps 664 mmHg 77%
    18:00 -4°C° 0 mm 0 mps 664 mmHg 79%
    19:00 -4°C° 0 mm 0 mps 664 mmHg 81%
    20:00 -4°C° 0 mm 0 mps 665 mmHg 80%
    21:00 -4°C° 0 mm 0 mps 665 mmHg 79%
    22:00 -4°C° 0 mm 0 mps 665 mmHg 79%
    23:00 -4°C° 0 mm 0 mps 665 mmHg 81%

    23 November, Saturday

    Time Temperature Precipitation Wind Pressure Humidity
    00:00 -4°C° 0 mm 0 mps 665 mmHg 82%
    01:00 -5°C° 0 mm 0 mps 664 mmHg 84%
    02:00 -5°C° 0 mm 0 mps 664 mmHg 84%
    03:00 -5°C° 0 mm 0 mps 665 mmHg 84%
    04:00 -5°C° 0 mm 0 mps 665 mmHg 84%
    05:00 -4°C° 0 mm 0 mps 665 mmHg 84%
    06:00 -4°C° 0 mm 0 mps 664 mmHg 84%
    07:00 -4°C° 0 mm 0 mps 664 mmHg 84%
    08:00 -3°C° 0 mm 0 mps 665 mmHg 83%
    09:00 -3°C° 0 mm 0 mps 665 mmHg 82%
    10:00 -2°C° 0 mm 0 mps 665 mmHg 81%
    11:00 -2°C° 0.3 mm 0 mps 665 mmHg 81%
    12:00 -1°C° 0.3 mm 0 mps 664 mmHg 80%
    13:00 -1°C° 0.3 mm 0 mps 664 mmHg 80%
    14:00 -1°C° 0 mm 0 mps 663 mmHg 83%
    15:00 -2°C° 0 mm 0 mps 663 mmHg 86%
    16:00 -2°C° 0 mm 0 mps 663 mmHg 89%
    17:00 -2°C° 0 mm 0 mps 662 mmHg 89%
    18:00 -2°C° 0 mm 0 mps 662 mmHg 90%
    19:00 -2°C° 0 mm 0 mps 662 mmHg 90%
    20:00 -1°C° 0 mm 1 mps 661 mmHg 90%
    21:00 -1°C° 0 mm 1 mps 661 mmHg 90%
    22:00 -1°C° 0 mm 1 mps 660 mmHg 90%
    23:00 -1°C° 0.1 mm 1 mps 659 mmHg 91%

    24 November, Sunday

    Time Temperature Precipitation Wind Pressure Humidity
    00:00 -1°C° 0.1 mm 1 mps 659 mmHg 91%
    01:00 -1°C° 0.1 mm 1 mps 658 mmHg 91%
    02:00 -1°C° 0.8 mm 1 mps 658 mmHg 93%
    03:00 -1°C° 0.8 mm 1 mps 658 mmHg 95%
    04:00 -1°C° 0.8 mm 1 mps 658 mmHg 96%
    05:00 -2°C° 0.2 mm 1 mps 658 mmHg 96%
    06:00 -3°C° 0.2 mm 0 mps 658 mmHg 97%
    07:00 -4°C° 0.2 mm 0 mps 658 mmHg 97%
    08:00 -2°C° 0 mm 0 mps 658 mmHg 91%
    09:00 -1°C° 0 mm 0 mps 659 mmHg 85%
    10:00 0°C° 0 mm 0 mps 659 mmHg 80%
    11:00 +1°C° 0 mm 0 mps 659 mmHg 75%
    12:00 +2°C° 0 mm 0 mps 658 mmHg 71%
    13:00 +2°C° 0 mm 0 mps 658 mmHg 67%
    14:00 +1°C° 0 mm 0 mps 657 mmHg 74%
    15:00 -1°C° 0 mm 0 mps 657 mmHg 81%
    16:00 -3°C° 0 mm 0 mps 656 mmHg 89%
    17:00 -3°C° 0 mm 0 mps 656 mmHg 90%
    18:00 -4°C° 0 mm 0 mps 655 mmHg 90%
    19:00 -4°C° 0 mm 0 mps 655 mmHg 91%
    20:00 -4°C° 0 mm 0 mps 655 mmHg 91%
    21:00 -4°C° 0 mm 0 mps 655 mmHg 91%
    22:00 -4°C° 0 mm 0 mps 655 mmHg 91%
    23:00 -4°C° 0 mm 0 mps 655 mmHg 91%

    25 November, Monday

    Time Temperature Precipitation Wind Pressure Humidity
    00:00 -5°C° 0 mm 0 mps 655 mmHg 90%
    01:00 -5°C° 0 mm 0 mps 655 mmHg 90%
    02:00 -4°C° 0.1 mm 0 mps 655 mmHg 91%
    03:00 -4°C° 0.1 mm 0 mps 655 mmHg 93%
    04:00 -3°C° 0.1 mm 1 mps 656 mmHg 94%
    05:00 -3°C° 0.1 mm 1 mps 656 mmHg 95%
    06:00 -3°C° 0.1 mm 1 mps 657 mmHg 96%
    07:00 -3°C° 0.1 mm 1 mps 657 mmHg 96%
    08:00 -2°C° 0 mm 1 mps 657 mmHg 89%
    09:00 -1°C° 0 mm 1 mps 658 mmHg 81%
    10:00 0°C° 0 mm 1 mps 658 mmHg 73%
    11:00 +1°C° 0 mm 1 mps 658 mmHg 64%
    12:00 +1°C° 0 mm 1 mps 658 mmHg 55%
    13:00 +2°C° 0 mm 1 mps 658 mmHg 46%
    14:00 0°C° 0 mm 1 mps 658 mmHg 52%
    15:00 -2°C° 0 mm 1 mps 657 mmHg 57%
    16:00 -3°C° 0 mm 1 mps 657 mmHg 63%
    17:00 -4°C° 0 mm 1 mps 657 mmHg 66%
    18:00 -4°C° 0 mm 1 mps 657 mmHg 68%
    19:00 -4°C° 0 mm 1 mps 657 mmHg 70%
    20:00 -4°C° 0 mm 1 mps 657 mmHg 72%
    21:00 -4°C° 0 mm 1 mps 657 mmHg 73%
    22:00 -6°C° 0 mm 1 mps 657 mmHg 74%
    23:00 -6°C° 0 mm 1 mps 657 mmHg 74%
    Show more